{"data":{"norad_id":47274,"intl_designator":"2020-100S","name":"ONEWEB-0128","alt_names":[],"object_type":"PAYLOAD","status":"ACTIVE","operator":null,"country":"UK","launch_date":"2020-12-18","launch_site_code":"VOSTO","launch_vehicle":null,"mission":null,"orbit_class":"UNKNOWN","rcs_meters":null,"size_class":null,"mass_kg":null,"dimensions":null,"purposes":["comms"],"wikipedia_slug":null,"has_3d_model":false,"image_url":null,"decayed_at":null,"tle_current":{"epoch":"2026-05-25T01:59:49.795872Z","epoch_age_seconds":67936,"freshness":"FRESH","line1":"1 47274U 20100S   26145.08321523 -.00000219  00000+0 -64497-3 0  9995","line2":"2 47274  87.8947 355.2800 0001725  75.9843 284.1477 13.12442223261717","mean_motion":13.12442223,"eccentricity":0.0001725,"inclination_deg":87.8947,"raan_deg":355.28,"arg_perigee_deg":75.9843,"mean_anomaly_deg":284.1477,"bstar":-0.00064497,"rev_number":26171,"period_min":109.71911561245,"perigee_km":1212.4166910165,"apogee_km":1215.0358838506,"semimajor_km":7591.8632874336,"source":"CELESTRAK","updated_at":"2026-05-25T13:38:22.382437Z"}}}